TimeCDT,TemperatureF,Dew PointF,Humidity,Sea Level PressureIn,VisibilityMPH,Wind Direction,Wind SpeedMPH,Gust SpeedMPH,PrecipitationIn,Events,Conditions,WindDirDegrees,DateUTC
12:07 AM,51.8,44.6,76,30.19,10.0,NE,12.7,-,N/A,,Overcast,40,2012-10-07 05:07:00
12:20 AM,51.8,44.6,76,30.19,10.0,NNE,13.8,-,N/A,,Overcast,30,2012-10-07 05:20:00
12:51 AM,51.1,44.1,77,30.13,10.0,NNE,16.1,20.7,N/A,,Overcast,30,2012-10-07 05:51:00
1:51 AM,48.9,44.1,83,30.14,7.0,NE,13.8,-,N/A,,Overcast,40,2012-10-07 06:51:00
2:39 AM,48.2,44.6,87,30.21,6.0,NNE,10.4,-,N/A,,Overcast,20,2012-10-07 07:39:00
2:51 AM,48.0,44.1,86,30.16,5.0,NNE,11.5,-,N/A,,Overcast,30,2012-10-07 07:51:00
3:51 AM,46.9,43.0,86,30.16,10.0,NE,12.7,-,0.00,,Overcast,40,2012-10-07 08:51:00
4:24 AM,46.4,42.8,87,30.22,7.0,NNE,10.4,-,0.00,Rain,Light Rain,30,2012-10-07 09:24:00
4:51 AM,46.9,44.1,90,30.16,6.0,NNE,9.2,-,0.00,Rain,Light Rain,30,2012-10-07 09:51:00
5:10 AM,46.4,42.8,87,30.22,8.0,NNE,12.7,-,0.00,Rain,Light Rain,30,2012-10-07 10:10:00
5:49 AM,46.4,42.8,87,30.22,9.0,NE,9.2,-,0.00,,Overcast,40,2012-10-07 10:49:00
5:51 AM,46.9,43.0,86,30.17,8.0,NE,9.2,-,0.00,,Overcast,40,2012-10-07 10:51:00
6:10 AM,46.4,42.8,87,30.23,6.0,NNE,10.4,-,0.01,Rain,Light Rain,30,2012-10-07 11:10:00
6:51 AM,46.0,43.0,89,30.19,8.0,NE,9.2,-,0.01,,Overcast,40,2012-10-07 11:51:00
7:40 AM,44.6,42.8,93,30.24,8.0,NNE,11.5,-,0.00,,Overcast,30,2012-10-07 12:40:00
7:51 AM,45.0,41.0,86,30.21,9.0,NE,9.2,-,0.00,,Overcast,40,2012-10-07 12:51:00
8:32 AM,44.6,39.2,81,30.26,9.0,NNE,12.7,-,N/A,,Overcast,30,2012-10-07 13:32:00
8:51 AM,44.1,39.9,85,30.22,9.0,NE,9.2,-,N/A,,Overcast,40,2012-10-07 13:51:00
9:51 AM,45.0,39.9,82,30.21,9.0,ENE,12.7,-,N/A,,Overcast,60,2012-10-07 14:51:00
10:51 AM,45.0,39.0,80,30.22,9.0,NE,11.5,-,N/A,,Overcast,40,2012-10-07 15:51:00
11:51 AM,46.0,39.9,79,30.21,8.0,NE,9.2,-,N/A,,Overcast,40,2012-10-07 16:51:00
12:51 PM,46.9,41.0,80,30.20,8.0,NNE,6.9,-,0.00,,Overcast,30,2012-10-07 17:51:00
1:51 PM,48.0,41.0,77,30.18,9.0,NE,8.1,-,N/A,,Overcast,40,2012-10-07 18:51:00
2:51 PM,48.0,41.0,77,30.15,9.0,NE,8.1,-,N/A,,Overcast,40,2012-10-07 19:51:00
3:51 PM,48.9,42.1,77,30.14,9.0,North,8.1,-,N/A,,Overcast,10,2012-10-07 20:51:00
4:51 PM,48.9,42.1,77,30.13,9.0,NNE,6.9,-,N/A,,Overcast,30,2012-10-07 21:51:00
5:00 PM,48.2,42.8,82,30.17,9.0,NNE,9.2,-,N/A,,Overcast,30,2012-10-07 22:00:00
5:51 PM,48.9,42.1,77,30.13,9.0,ENE,8.1,-,N/A,,Overcast,60,2012-10-07 22:51:00
6:51 PM,50.0,42.1,74,30.14,9.0,ENE,5.8,-,N/A,,Overcast,60,2012-10-07 23:51:00
7:51 PM,50.0,42.1,74,30.16,9.0,NE,6.9,-,N/A,,Overcast,40,2012-10-08 00:51:00
8:51 PM,48.9,42.1,77,30.18,7.0,NE,6.9,-,N/A,,Overcast,50,2012-10-08 01:51:00
9:51 PM,48.0,42.1,80,30.20,9.0,NE,6.9,-,N/A,,Overcast,50,2012-10-08 02:51:00
10:15 PM,48.2,42.8,82,30.23,9.0,ENE,8.1,-,N/A,,Overcast,60,2012-10-08 03:15:00
10:31 PM,46.4,42.8,87,30.23,9.0,ENE,8.1,-,N/A,,Overcast,60,2012-10-08 03:31:00
10:51 PM,48.0,42.1,80,30.19,9.0,NE,8.1,-,N/A,,Overcast,50,2012-10-08 03:51:00
11:34 PM,48.2,39.2,71,30.23,10.0,NE,5.8,-,N/A,,Overcast,50,2012-10-08 04:34:00
11:41 PM,48.2,39.2,71,30.23,10.0,ENE,4.6,-,N/A,,Overcast,60,2012-10-08 04:41:00
11:51 PM,48.0,39.9,74,30.19,10.0,ENE,5.8,-,N/A,,Overcast,70,2012-10-08 04:51:00